NATIONAL KEY DEER NWR FL US current weather conditions

sailwx.info

Wind from 287 at 3 knots gusting 6

Air temperature 29.4° C
Dewpoint 23.4° C

Last reported at 2014-Jul-31 00:38 UTC.
Time now 2014-Jul-31 01:24 UTC

Location: N 24°43' W 081°23'.
View on Google Maps.

See reports from other nearby stations

  
Tides and Currents Weather Stations Pressure Air Temp Water Temp Dewpoint Dewpoint Depression Visibility Wind Speed Wind Dir Waves Ship Positions
date/time (UTC)wind fromknots sea level pressurealtimeterstation pressurevisibilityair tempwater tempwave heightnotes
2014-Jul-31 00:38 287 3 gusting 6 29.4
2014-Jul-30 23:38 304 2 gusting 7 31.1
2014-Jul-30 22:38 304 4 gusting 11 32.8
2014-Jul-30 21:38 300 6 gusting 11 33.3
2014-Jul-30 20:38 270 6 gusting 12 33.9
2014-Jul-30 19:38 291 6 gusting 11 33.9
2014-Jul-30 18:38 291 6 gusting 10 33.9
2014-Jul-30 17:38 295 5 gusting 9 34.4
2014-Jul-30 16:38 275 4 gusting 8 32.8
2014-Jul-30 15:38 304 3 gusting 8 33.3
2014-Jul-30 14:38 270 3 gusting 6 31.1
2014-Jul-30 13:38 278 4 gusting 6 32.2
2014-Jul-30 12:38 238 2 gusting 5 31.1
2014-Jul-30 11:38 184 3 gusting 4 27.2
2014-Jul-30 10:38 257 1 gusting 6 27.2
2014-Jul-30 09:38 243 3 gusting 4 27.8
2014-Jul-30 08:38 234 2 gusting 5 28.3
2014-Jul-30 07:38 232 3 gusting 6 28.9
2014-Jul-30 06:38 228 2 gusting 5 28.3
2014-Jul-30 05:38 262 2 gusting 4 27.8
2014-Jul-30 04:38 281 2 gusting 5 27.8
2014-Jul-30 03:38 289 2 gusting 5 27.2
2014-Jul-30 02:38 298 2 gusting 5 28.3
2014-Jul-30 01:38 319 2 gusting 7 28.9
2014-Jul-30 00:38 294 4 gusting 9 29.4
2014-Jul-29 23:38 292 4 gusting 10 30.6
2014-Jul-29 22:38 289 4 gusting 12 32.2
2014-Jul-29 21:38 282 4 gusting 10 33.3
2014-Jul-29 20:38 294 5 gusting 12 33.3
2014-Jul-29 19:38 290 5 gusting 11 33.3
2014-Jul-29 18:38 302 5 gusting 10 33.9
2014-Jul-29 17:38 294 6 gusting 10 33.3
2014-Jul-29 16:38 307 6 gusting 11 33.3
2014-Jul-29 15:38 304 4 gusting 8 33.3
2014-Jul-29 14:38 266 5 gusting 8 32.8
2014-Jul-29 13:38 250 3 gusting 6 32.2
2014-Jul-29 12:38 249 2 gusting 5 30.6
2014-Jul-29 11:38 270 1 gusting 4 26.7
2014-Jul-29 10:38 257 1 gusting 4 25.0
2014-Jul-29 09:38 24.4
2014-Jul-29 08:38 23.9
2014-Jul-29 07:38 171 1 gusting 1 24.4
2014-Jul-29 06:38 142 0 gusting 2 25.0
2014-Jul-29 05:38 311 1 gusting 3 25.0
2014-Jul-29 04:38 332 1 gusting 2 25.6
2014-Jul-29 03:38 250 1 gusting 1 25.6
2014-Jul-29 02:38 26.1
2014-Jul-29 01:38 321 1 gusting 2 27.2